sat.trackr.live / text

‹ back to catalog

ONEWEB-0130

NORAD 47276 · 2020-100U

PAYLOAD ACTIVE UNKNOWN

§ Identity

Operator
Country
UK
Launch date
2020-12-18
Launch site
VOSTO
Launch vehicle
Mass (kg)
RCS (m²)

Purposes: comms

External: N2YO · Heavens-Above · Gunter

§ Orbital elements

Epoch: 2026-05-25T02:09:36.792288Z

Period
109.72 min
Inclination
87.8961°
Eccentricity
0.0001683
Mean motion
13.12443195 rev/d
Perigee alt
1,212.4 km
Apogee alt
1,215.0 km
Semi-major
7,591.9 km
B*
-1.4147e-4
RAAN
355.2450°
Arg perigee
85.4054°
Mean anomaly
274.7267°
Rev number
26,161

§ Raw data

ONEWEB-01301 47276U 20100U   26145.09000917 -.00000038  00000+0 -14147-3 0  99952 47276  87.8961 355.2450 0001683  85.4054 274.7267 13.12443195261619

JSON: /api/v1/satellites/47276 · /tle

For live sub-satellite position, see the globe view (requires WebGL).

§ Visibility from observer

Set your observer location to see the next 7 days of passes ≥ 10°. The values pass through the URL so the page stays shareable.

No JS? Fill the form by hand. The geolocation button needs JavaScript.